Погода в Тевризе

Погода в Тевризе : погода сейчас, прогноз погоды и архив. Всё, что Вы хотите узнать о погоде в Тевризе!

Хотите узнать прогноз погоды в Тевризе? Тогда Вам сюда: Погода в Тевризе

Поиск расширенной информации на нашем сайте:

Другие новости

Новости СМИ2

Главная страница сайта

Новости сайта

03.07.2017

Напоминаем, что на нашем специализированном сайте Метеоцентр.Азия вы можете получить высокодетализированные автоматические прогнозы погоды по пунктам России, СНГ и мира в авиационном формате (включающие направление и скорость ветра, видимость, явления погоды, количество и форму облачности, нижнюю и верхнюю границу облачности).

Рекомендуем: Супер прогрессивный стабилизатор переменного напряжения

Погода в Тевризе - сегодня

Время (UTC), дата Ветер
(°,м/с) 
Видим.   Явления Облачность Т
(°С)
Тd
(°С)
f(%) Тe
(°С)
Pmin
(гПа)
dP
(гПа)
Po
(мм)
O2
(г/м3)
Тmin Tmax R s Состояние
почвы
09 20.08.17 330 (СЗ) 20000 м    10/3 1000 м верхняя 
[Cu med, cong|Cc]
+21.9 +10 47 +23  1020.5  760  282           
12 20.08.17 290 (З) н/о    н/о 
+22 +9.8 46 +23  1020.3  -0.2  759  281           
15 20.08.17 тихо ()   20000 м    3/0 средняя 
[Ac lent]
+14.1 +13.5 96 +20  1020.9  0.4  760  288    +22.7       
18 20.08.17 320 (СЗ) 10 км    1/0 средняя 
[Ac lent]
+9.9 +9.9 100 +12  1021.5  0.5  760  294           
21 20.08.17 тихо ()   10 км    3/0 верхняя 
[Ci sp]
+9.5 +9.5 100 +10  1021  -0.5  760  294           
00 21.08.17 130 (ЮВ) 8000 м  дымка  6/0 средняя 
[Ac cast]
+9 +9 100 +10  1021.4  0.4  760  295           
03 21.08.17 240 (ЮЗ) 20000 м    3/0 верхняя 
[Ci fib]
+17.4 +15.6 89 +28  1021.8  0.6  761  285  +8.9        сухая 
06 21.08.17 260 (З) н/о    н/о 
+23.7 +14.4 56 +31  1021.3  -0.3  760  279           
09 21.08.17 300 (СЗ) 20000 м    8/6 600 м кучево-дожд., верхняя 
[Cb cap|Ci sp]
+22.4 +15.6 65 +32  1020.7  -0.6  760  280           
12 21.08.17 280 (З) н/о    н/о 
+24.1 +15 57 +32  1020.3  -0.3  760  278           
15 21.08.17 240 (ЮЗ) 20000 м    6/0 средняя 
[Ac cuf]
+17.1 +15.7 91 +29  1020.7  0.1  760  285    +25       
18 21.08.17 270 (З) 10 км    3/0 верхняя 
[Ci fib]
+16.4 +15.7 96 +28  1020.8  0.1  760  285           
21 21.08.17 260 (З) 10 км  местами туман поземный  ясно 
+12.8 +12.8 100 +19  1020.9  760  290           
00 22.08.17 260 (З) 8000 м  дымка  3/0 верхняя 
[Ci fib]
+13.6 +13.6 100 +20  1020.9  760  289           
03 22.08.17 260 (З) 20000 м    6/0 средняя, верхняя 
[Ac trans|Cc]
+17.4 +16.8 96 +30  1021.2  0.4  760  284  +11.5        сухая 
06 22.08.17 270 (З) н/о    н/о 
+23.8 +17.4 67 +37  1020.8  -0.2  760  278           
09 22.08.17 280 (З) 5{10}  20000 м    4/4 600 м кучево-дожд. 
[Cb cap]
+25.4 +18.4 65 +40  1020.4  -0.3  760  276           
12 22.08.17 330 (СЗ) н/о    н/о 
+25.7 +13.8 48 +32  1020.7  0.3  760  277           
15 22.08.17 290 (З) 20000 м    3/0 верхняя 
[Ci fib]
+17.9 +15.3 85 +28  1022.1  1.2  761  284    +26.5       
18 22.08.17 290 (З) 10 км    3/0 средняя 
[Ac lent]
+13.1 +13.1 100 +19  1023.4  1.1  762  290           
21 22.08.17 230 (ЮЗ) 4000 м  слаб. ливневой дождь  10/5 600 м кучево-дожд., средняя 
[Cb cap|As op]
+14.8 +14.8 100 +24  1024  0.7  762  288           
00 23.08.17 260 (З) 20000 м  {ливн. осадки}  10/0 средняя, верхняя 
[Ac lent|Cs]
+14.3 +14.3 100 +22  1024.4  0.4  762  289           
03 23.08.17 290 (З) 20000 м    3/0 верхняя 
[Ci fib]
+18.9 +16.9 88 +32  1025.6  1.3  763  284  +12.6    0.0    сухая 
06 23.08.17 320 (СЗ) н/о    н/о 
+25.5 +18.3 64 +40  1025.6  0.2  764  277           
09 23.08.17 280 (З) 20000 м    8/0 верхняя 
[Ci sp]
+27.8 +15.9 48 +38  1025.5  0.1  764  276           
Время (UTC), дата Ветер
(°,м/с) 
Видим.   Явления Облачность Т
(°С)
Тd
(°С)
f(%) Тe
(°С)
Pmin
(гПа)
dP
(гПа)
Po
(мм)
O2
(г/м3)
Тmin Tmax R s Состояние
почвы

Для получения пояснительной информации подведите курсор к названию столбца.

ПОГОДА в Тевризе - архив

Всё, что Вы хотите узнать о погоде в Тевризе - удобно и подробно!

Выберите нужную дату (начиная с 1 января 2015* года) и нажмите кнопку "Найти".
Будут отображены архивные сводки погоды по пункту Тевриз, начиная с указанной даты.


Отображать данные в формате CSV (для использования в таблицах Excel)


Внимание! Наш архив погоды предназначен исключительно для личного некоммерческого использования в познавательных целях. Если Вам необходимы официальные справки о состоянии погоды (для производственных, юридических, коммерческих и т.п. целей), обращайтесь в органы Росгидромета.

*Примечание: данная дата относится к архиву по метеостанциям СССР (Россия, СНГ, Балтия).
Архив по метеостанциям Зарубежной Европы и Азии (кроме Китая) хранится 10 дней, по другим регионам земного шара (Китай, Африка, Америка, Австралия, Океания) - 1 день.

Тевриз - район местоположения метеостанции


Название, широта, долгота, высота метеостанции:
Тевриз 57.5°ш. 72.4°д. 67 м над ур. моря [Российская Федерация]

Дополнительная информация

В oтличие oт бoльшинства пoгoдных сайтoв мы публикуем пoдрoбную метеoинфoрмацию в детальнoм прoфессиoнальнoм фoрмате.

Характеристики температуры и влажнoсти вoздуха измеряются на высoте 2 м в тени вдали oт зданий и деревьев.
Скoрoсть ветра измеряется на высoте 10 м (на урoвне рoста челoвека скoрoсть ветра ниже в 1.5-2 раза). Если метеoстанция нахoдится в гoрoде или в лесу, тo скoрoсть ветра занижена на 2-4 м/с пo сравнению с oткрытым местoм. Скoрoсть ветра над акватoриями крупных рек и oзёр, а также на вершинах хoлмoв на 2-5 м/с выше, чем в oбычных услoвиях.
Атмoсфернoе давление в разных тoчках местнoсти мoжет значительнo oтличаться oт давления на метеoстанции, в зависимoсти oт услoвий рельефа (при пoдъёме на 10 м давление пoнижается примернo на 1 мм рт.ст.).